GEFSGL_500_meanwind_054.txt.gz
Wind_Speed
41 41 41 40 40 40 40 40 39 39 39 40 40 40 40 40 41 41 41 41 41 41 41 41 41 41 41 41 41 41 41 41 40 38 39 40 42 44 44 43 42 41 40
41 41 41 41 41 41 41 40 39 39 40 40 39 40 41 41 42 43 43 43 43 43 43 43 43 43 44 43 43 43 44 44 41 40 40 41 43 45 45 45 44 44 42
42 42 42 42 41 41 40 40 40 40 39 40 40 41 41 41 42 43 44 44 44 44 45 46 46 46 47 47 46 46 46 46 45 43 42 43 44 46 47 47 47 46 45
43 43 43 42 42 41 40 40 40 40 39 40 40 40 41 41 42 43 44 45 45 45 46 47 48 49 49 50 50 50 50 49 48 47 44 44 45 47 48 48 49 48 47
44 44 44 43 42 41 40 40 40 40 40 39 39 39 39 39 40 41 43 44 45 46 47 48 49 50 51 52 53 54 54 53 51 50 48 47 46 48 48 49 50 50 49
45 45 45 44 42 41 40 40 40 40 39 39 38 37 37 38 40 41 43 43 44 45 46 47 48 50 51 53 55 57 58 57 55 53 52 50 48 48 50 50 52 51 50
46 46 46 44 42 41 40 40 40 39 38 37 37 37 38 39 40 40 40 40 40 41 43 44 46 49 51 53 56 58 60 60 59 57 55 52 50 50 51 52 52 52 51
47 47 46 45 43 41 40 40 39 38 37 37 37 37 37 37 37 37 37 37 36 37 38 40 43 46 49 52 55 59 60 61 61 60 58 56 53 51 50 51 53 53 53
47 47 46 44 42 41 40 39 39 38 37 37 37 37 36 35 35 35 35 34 33 33 35 37 40 43 46 50 54 57 60 62 63 63 61 60 57 54 52 53 54 55 55
47 47 46 44 43 41 40 39 39 38 37 37 37 36 35 33 32 32 32 31 29 29 31 34 37 40 44 47 52 56 58 60 63 63 63 61 59 56 54 53 52 53 54
47 47 46 44 43 42 41 40 39 38 37 36 35 34 32 31 31 31 29 27 26 27 28 30 32 36 40 44 48 53 56 59 62 63 63 63 60 58 56 54 53 52 53
46 46 46 44 43 42 41 40 39 38 37 35 33 33 32 32 30 29 26 24 23 23 23 24 27 31 36 40 45 49 54 57 60 63 64 63 61 59 57 55 53 52 52
46 46 45 44 43 42 41 40 38 36 36 35 33 32 31 30 28 25 23 20 19 17 15 17 21 26 31 36 41 46 50 54 57 61 63 62 61 59 58 58 55 54 53
45 45 45 44 42 42 41 38 36 36 35 35 33 32 30 27 25 23 20 17 14 11 10 13 17 21 26 32 38 43 47 51 54 57 60 61 60 60 58 57 56 54 53
45 45 44 43 42 41 40 38 36 36 36 35 33 31 28 25 23 21 17 14 11 9 8 10 13 17 22 28 34 39 44 48 52 54 57 59 59 60 57 56 55 54 52
45 44 43 42 41 40 38 37 36 36 36 35 32 30 26 24 22 19 16 11 8 6 6 9 13 17 20 25 30 35 40 45 48 51 54 56 58 58 57 54 52 54 53
45 44 43 41 40 39 37 36 35 35 35 35 32 29 25 22 20 16 13 10 6 4 5 8 13 17 20 23 27 32 36 40 44 48 51 54 56 57 56 55 53 53 51
44 43 42 40 39 38 36 35 34 34 34 33 30 27 24 21 17 14 11 8 4 2 5 8 11 15 19 22 26 29 33 36 40 45 48 51 53 55 55 54 53 53 52
43 42 40 39 37 36 35 34 33 33 33 31 28 26 23 20 16 13 10 6 2 1 4 8 11 14 18 20 23 27 30 33 36 41 45 48 49 52 53 53 53 52 51
42 40 38 37 36 35 34 33 31 31 31 30 28 25 22 19 16 13 10 6 2 1 4 7 11 14 16 19 21 24 26 30 34 38 42 45 48 49 51 53 53 52 50
40 38 37 36 34 33 32 30 29 28 28 28 26 24 21 18 16 13 10 7 3 2 5 7 10 12 14 17 19 21 24 28 31 35 39 43 46 47 49 50 50 50 50
38 36 35 34 32 30 29 28 27 26 26 26 25 23 20 17 16 14 11 8 3 2 5 7 9 10 13 15 17 19 22 25 28 32 36 40 43 45 47 48 48 48 48
36 34 33 31 29 28 27 26 25 24 24 24 23 22 20 17 15 14 12 9 5 2 4 7 8 9 12 15 17 18 20 22 25 29 33 36 39 42 45 46 46 46 46
34 32 31 29 27 26 24 23 22 21 21 22 22 20 19 17 15 14 13 9 5 2 3 6 7 9 11 13 16 18 19 21 23 26 30 34 36 39 42 45 46 45 45
32 30 28 27 25 24 22 21 20 19 19 19 20 19 18 16 15 14 12 10 6 3 2 4 6 9 12 14 15 17 19 21 22 25 28 30 33 36 40 41 42 43 44
30 28 26 25 23 21 20 18 17 17 17 17 17 17 17 16 15 14 12 9 7 4 2 3 5 8 11 14 16 17 18 20 21 23 25 28 31 34 37 39 41 41 43

GEFSGL_500_meanwind_060.txt.gz
Wind_Speed
33 33 34 35 36 37 37 38 38 38 38 37 37 37 37 37 37 37 37 37 37 38 39 39 39 40 41 41 42 42 41 41 40 41 42 42 42 42 43 44 45 45 44
35 35 36 37 38 38 39 40 40 39 39 39 38 37 37 37 37 37 37 37 37 38 39 39 40 41 42 42 42 43 43 43 42 42 43 43 44 43 44 45 46 46 45
37 37 38 39 39 40 41 41 41 40 40 40 38 37 37 36 37 37 37 36 37 37 38 39 40 41 42 43 44 44 45 45 44 43 44 44 44 45 45 45 47 48 47
38 39 39 40 41 41 42 42 42 41 41 40 39 38 37 37 37 36 36 36 36 37 38 39 40 41 42 44 45 45 46 47 47 46 46 46 46 46 45 46 47 48 48
39 40 41 42 42 43 43 43 43 42 41 40 39 39 38 37 37 36 36 37 37 37 37 38 40 41 42 44 45 46 47 48 48 48 49 49 48 47 47 46 47 49 50
40 41 42 43 43 44 44 44 44 43 42 41 40 39 38 38 37 37 37 37 37 37 38 39 40 41 42 44 45 47 48 49 49 49 50 51 49 51 49 46 47 48 50
41 42 43 43 44 44 45 45 44 44 43 42 41 40 39 38 38 38 37 37 36 37 37 38 39 40 41 43 45 47 49 51 52 52 51 52 51 52 52 49 47 47 50
42 43 43 44 44 45 45 45 45 44 43 42 41 40 39 39 38 37 37 36 36 36 37 38 38 39 40 42 44 46 49 52 53 54 53 54 55 53 53 51 49 48 50
43 44 44 44 45 46 46 46 45 44 43 42 41 40 39 39 38 37 36 35 35 35 36 37 37 38 39 41 43 45 48 51 54 55 56 56 57 57 55 53 52 51 50
43 44 45 45 46 46 47 46 45 44 43 42 41 41 40 38 37 36 36 35 34 33 34 34 35 36 37 39 42 44 46 50 54 56 57 57 58 59 56 55 54 53 51
44 45 46 47 47 47 47 46 45 44 43 42 41 40 39 38 37 36 35 34 32 31 31 31 31 33 34 36 39 42 46 49 53 56 57 59 60 60 59 57 55 55 53
46 46 47 47 48 47 46 46 45 43 42 41 40 39 39 38 37 35 34 32 31 29 28 28 28 30 32 34 37 40 44 47 51 54 57 58 60 61 60 58 56 56 54
47 48 48 48 48 47 46 45 44 43 41 41 40 39 38 37 36 33 31 30 28 27 25 25 25 26 27 29 33 36 41 45 48 52 55 57 59 61 62 60 58 58 55
49 49 49 49 48 47 46 45 43 41 40 40 39 38 37 36 34 31 29 27 26 24 23 22 22 21 22 24 27 30 35 41 46 50 53 55 58 60 62 61 59 58 57
50 50 50 48 47 46 45 44 42 40 39 39 38 37 36 34 33 30 27 25 24 22 20 18 17 16 17 19 22 25 30 34 40 45 49 52 55 57 60 61 60 59 58
51 50 49 47 46 44 44 42 41 39 39 38 37 36 34 33 31 29 26 23 22 20 16 15 13 13 13 13 16 20 24 29 35 40 45 48 52 55 58 59 59 59 57
51 50 48 46 45 43 42 40 38 37 37 37 36 35 33 31 29 27 24 22 20 18 14 13 11 10 9 9 12 16 21 25 30 35 40 44 48 52 55 57 57 58 57
51 49 48 46 43 41 40 39 37 36 35 35 34 33 31 30 27 25 23 21 19 16 13 11 10 8 7 7 9 12 17 22 26 31 35 39 44 48 52 54 55 56 56
50 48 46 44 41 39 38 37 36 35 34 33 32 31 30 28 26 24 22 20 18 15 13 10 8 7 5 5 6 9 14 19 23 27 31 35 40 45 49 52 53 54 55
50 47 44 41 39 37 36 35 34 33 32 32 30 29 28 26 25 23 21 19 17 15 11 9 7 5 4 3 4 7 12 15 19 24 28 33 38 42 46 48 51 53 54
48 45 41 39 37 35 34 33 32 31 30 30 29 27 26 25 24 23 20 18 16 13 10 7 5 4 2 1 3 6 9 13 16 21 25 31 36 39 42 45 48 51 53
45 42 39 37 35 33 32 31 30 29 29 28 27 26 25 24 23 22 20 18 15 12 9 6 4 3 1 2 4 6 9 12 14 18 23 29 33 37 40 43 45 47 50
42 39 37 34 32 31 30 29 28 27 27 26 25 24 23 22 21 20 19 17 15 12 9 6 5 3 1 3 4 6 8 11 13 16 20 25 30 34 36 39 43 45 46
39 37 34 32 30 29 28 27 25 25 25 24 24 23 21 20 19 19 18 17 14 11 9 7 5 2 1 3 5 6 8 10 13 16 19 23 28 32 34 37 41 43 43
37 34 31 29 28 27 26 24 23 23 22 22 22 21 20 18 18 18 17 16 14 12 8 6 4 2 1 3 5 6 7 9 13 15 18 22 25 28 32 35 38 40 41
34 31 28 27 26 24 23 22 21 20 20 20 20 19 18 17 16 16 16 15 14 12 9 6 3 1 2 3 4 5 7 9 11 14 17 20 22 25 29 32 35 38 39

GEFSGL_500_meanwind_066.txt.gz
Wind_Speed
23 24 25 26 27 28 28 29 29 30 31 32 33 34 34 34 34 34 34 34 35 35 35 36 36 37 38 38 39 40 40 41 42 43 44 43 44 45 45 45 45 45 46
25 26 27 28 29 29 30 31 31 32 33 34 35 36 36 36 36 36 36 36 36 36 37 37 37 37 38 39 39 40 41 41 42 43 45 45 44 45 45 45 46 46 45
26 27 28 30 31 31 32 33 34 35 36 37 37 38 38 38 37 37 37 37 37 37 37 37 37 37 37 38 40 40 41 42 42 43 45 46 45 45 46 46 45 46 46
28 29 30 31 32 33 34 35 37 38 38 39 40 40 40 39 38 38 38 38 37 37 36 36 36 37 37 38 39 40 41 42 43 44 45 47 47 46 46 45 46 47 46
29 30 31 33 34 35 36 38 39 40 41 41 41 41 40 39 38 38 38 37 37 37 37 37 37 37 38 39 39 40 41 42 43 44 45 46 48 48 47 46 46 46 46
30 31 33 34 36 37 39 40 41 42 42 43 42 41 40 40 39 39 38 37 36 36 36 36 37 37 38 39 40 41 42 43 44 44 45 47 48 49 48 47 47 46 46
32 33 34 36 38 40 41 42 43 43 44 43 42 41 40 40 39 39 37 36 35 35 35 35 36 37 37 38 39 40 42 43 44 45 46 47 48 50 50 49 48 47 46
33 34 36 38 40 41 43 44 44 44 44 43 42 41 40 40 39 38 36 35 34 34 34 33 34 35 36 37 38 39 40 42 44 45 46 47 49 50 51 51 50 48 46
34 36 37 39 41 43 44 45 45 45 44 43 42 41 40 39 38 36 34 33 33 33 33 33 32 33 34 35 37 38 39 41 44 46 47 48 49 51 52 52 52 50 48
35 37 38 40 43 44 45 46 46 45 44 43 42 41 39 37 36 35 34 33 32 32 32 32 32 32 33 34 35 37 39 41 43 45 47 48 49 51 53 53 53 52 50
36 38 40 42 44 46 47 47 46 45 43 42 41 40 38 36 35 34 33 33 32 31 31 31 31 31 32 33 35 36 37 39 42 44 46 47 49 51 53 54 54 53 52
37 39 42 44 46 48 48 47 46 44 43 41 39 38 37 35 34 33 33 32 30 29 29 29 29 29 30 31 32 33 35 36 39 42 45 47 48 50 52 54 55 54 54
40 42 43 46 47 48 48 47 46 45 42 40 38 37 35 35 33 32 32 31 30 28 28 27 27 27 27 27 28 29 31 34 36 39 42 44 47 49 52 53 54 55 55
44 44 45 47 48 48 48 47 46 44 41 40 38 36 35 34 33 32 31 30 28 27 26 26 25 24 24 23 23 24 26 30 33 37 40 43 46 49 51 53 53 55 56
46 47 47 48 48 48 48 47 45 43 41 39 37 35 34 33 32 31 30 28 27 26 25 24 23 21 20 21 21 21 23 26 29 33 37 41 44 47 50 52 53 54 55
48 48 49 49 49 49 48 47 45 42 40 38 36 35 33 32 31 30 29 27 26 25 23 22 20 19 19 19 19 20 21 23 26 29 33 38 42 46 49 51 52 53 54
49 50 50 49 49 49 48 46 43 41 38 37 36 34 33 32 31 29 27 26 25 24 22 21 19 18 17 17 18 18 19 20 22 25 29 34 38 43 47 50 52 52 52
51 50 49 49 49 48 47 45 42 38 36 36 35 33 32 31 29 28 26 25 25 23 21 20 19 17 16 16 16 16 16 17 19 22 25 29 35 39 44 48 50 51 52
52 50 48 48 48 47 45 43 39 37 34 34 33 32 31 30 28 26 25 25 24 22 20 19 18 16 15 14 13 13 13 14 17 20 23 26 31 37 41 45 48 50 51
50 49 48 48 47 45 43 40 37 35 33 32 32 31 30 29 26 25 24 23 23 22 20 18 17 15 13 12 11 10 10 11 13 17 20 24 27 32 38 42 45 48 49
50 49 48 47 46 43 40 37 35 33 31 30 30 29 28 27 25 24 23 22 22 21 19 17 15 13 11 10 9 8 8 9 11 14 18 22 25 29 34 38 43 46 48
50 48 47 45 43 39 37 35 33 32 30 29 28 28 27 25 24 23 22 21 21 20 18 16 14 12 10 8 7 8 8 9 12 13 17 21 24 27 31 35 39 43 46
49 47 45 43 40 37 34 32 31 29 28 27 26 26 25 24 23 22 21 20 20 19 16 14 12 11 9 8 7 7 7 8 10 13 16 20 24 27 31 34 36 39 43
47 44 42 39 36 34 32 30 28 27 26 25 24 24 23 22 21 20 19 19 19 18 15 12 11 10 9 8 7 6 7 8 10 12 16 18 22 26 30 32 35 37 39
43 41 38 36 33 31 29 27 26 25 24 23 22 21 21 20 20 19 18 18 17 16 14 12 10 9 8 7 7 6 7 9 11 12 15 17 20 23 28 31 34 37 38
39 37 35 32 30 28 26 25 24 22 21 20 19 19 19 19 18 17 17 16 14 14 12 10 9 8 7 6 6 6 6 9 11 13 14 16 19 23 27 30 33 36 38

GEFSGL_500_meanwind_072.txt.gz
Wind_Speed
20 21 22 23 24 24 25 26 27 27 29 30 31 33 34 34 35 35 36 36 36 36 37 37 37 38 38 38 39 39 39 39 39 39 41 42 42 42 42 42 42 42 43
21 22 23 23 24 25 26 27 28 29 30 31 33 34 35 36 37 37 37 37 37 37 37 37 37 38 38 39 39 39 39 40 40 40 41 42 42 42 42 42 43 43 43
21 22 24 25 26 27 28 29 30 31 32 33 35 36 37 38 38 38 39 38 38 37 37 37 37 38 38 38 39 39 39 40 40 40 40 41 42 42 42 42 42 43 44
22 24 25 26 27 28 29 30 31 32 33 35 36 38 39 39 39 39 39 38 37 37 37 37 37 37 37 37 38 39 39 40 40 40 39 40 41 42 42 43 43 43 43
24 25 26 27 28 29 31 32 33 34 35 37 38 40 40 40 40 39 39 38 37 37 36 36 36 36 36 36 37 38 39 39 39 40 39 39 40 42 42 43 43 43 43
26 27 28 29 30 31 33 34 35 36 38 39 40 41 41 41 41 40 39 38 37 36 36 35 35 35 35 35 36 36 37 38 38 39 39 39 40 41 43 43 43 43 43
28 29 30 31 32 33 35 35 36 38 39 41 41 42 42 42 41 41 39 38 37 37 36 35 34 34 34 34 34 35 35 36 37 38 38 39 40 41 42 43 43 43 43
29 30 31 33 34 36 37 38 39 40 42 42 42 42 42 41 41 40 40 39 37 36 35 34 33 33 33 33 33 33 33 34 35 36 36 37 39 40 42 42 43 43 43
30 32 33 35 36 38 39 40 41 43 44 43 43 43 42 41 41 40 40 38 37 35 35 34 33 33 32 32 32 32 32 33 34 35 35 36 38 39 41 42 43 43 43
33 34 35 37 38 40 41 42 43 44 45 44 44 43 42 41 41 41 40 39 37 36 35 34 33 33 32 32 32 32 32 33 34 35 35 36 38 39 40 42 43 44 43
35 36 37 40 41 42 43 44 45 46 46 46 45 44 42 42 41 40 40 38 36 35 34 33 32 32 31 31 31 31 31 32 33 35 36 37 38 39 40 41 43 44 44
37 38 40 42 44 44 44 45 47 47 47 46 45 44 42 41 40 39 39 37 36 35 33 32 31 31 30 30 30 30 30 31 32 33 35 36 37 38 39 41 42 43 45
40 41 43 44 46 46 46 47 47 48 47 47 46 44 44 42 40 39 38 37 35 34 32 31 31 30 29 29 29 29 29 28 29 30 32 33 34 36 38 40 41 42 44
43 44 45 46 48 48 49 49 49 50 49 47 46 45 44 41 40 39 38 36 34 33 32 31 30 29 28 27 27 26 26 27 26 26 27 29 31 33 35 38 40 42 43
45 46 47 49 50 50 49 50 50 49 49 47 46 45 43 41 39 38 37 36 34 33 31 30 28 27 27 26 25 25 24 24 24 24 25 27 28 31 33 36 38 41 42
48 49 51 52 52 51 51 51 51 50 48 46 45 43 42 40 39 37 36 35 33 32 30 29 28 27 26 26 25 24 23 23 23 23 23 24 26 29 31 33 36 39 41
50 51 52 52 53 54 54 53 51 49 48 46 44 42 40 39 37 35 34 33 32 31 29 28 27 26 25 25 24 24 23 22 21 21 21 22 24 26 29 31 34 37 40
52 53 54 54 54 54 53 52 50 49 47 45 43 42 39 37 35 34 33 32 31 30 28 27 26 25 25 25 24 23 22 22 21 21 21 21 23 24 26 29 32 35 37
53 53 54 54 54 54 53 51 50 48 46 44 42 40 38 35 33 33 32 31 30 29 27 26 25 25 24 24 23 22 22 22 22 21 21 20 21 22 24 27 30 33 35
54 54 54 54 54 54 52 50 49 46 44 42 40 38 36 34 32 32 31 30 29 28 27 26 26 25 24 24 23 22 21 21 21 20 18 18 19 21 22 25 28 31 33
55 55 55 55 54 53 51 49 47 44 42 39 37 35 34 32 31 31 30 29 28 27 27 26 25 25 24 23 22 22 21 20 19 18 17 16 18 20 21 23 26 30 32
55 55 55 54 53 51 49 46 43 41 38 36 35 33 31 30 29 30 28 27 27 26 26 25 25 24 23 22 21 20 19 18 18 17 16 15 16 18 20 22 25 28 30
55 54 53 52 50 48 45 42 40 37 35 33 32 31 29 28 28 27 26 26 26 26 26 25 24 23 21 20 19 18 17 16 15 14 14 14 14 16 18 20 23 26 29
54 52 51 49 47 44 42 39 36 34 32 31 30 28 27 26 25 25 25 25 25 25 25 24 23 21 20 19 18 17 16 15 15 14 13 13 13 14 16 19 22 24 27
52 50 48 45 43 40 38 36 34 32 31 29 28 26 25 25 24 24 24 24 24 23 22 22 21 19 18 18 18 17 15 15 14 14 13 13 13 14 15 18 21 23 26
49 47 45 42 40 36 35 33 31 30 29 27 26 24 24 23 22 22 22 22 21 21 21 20 19 18 18 18 17 17 16 15 14 13 13 12 12 13 15 17 19 22 24

GEFSGL_500_meanwind_078.txt.gz
Wind_Speed
10 11 12 14 15 16 17 19 20 21 22 23 24 26 27 28 29 30 31 31 31 31 31 32 32 33 33 34 34 35 35 36 35 37 39 39 40 40 41 41 41 41 42
12 13 15 16 17 18 19 21 22 23 24 25 26 27 29 30 31 32 33 33 33 33 33 33 33 33 33 34 34 35 36 36 36 36 38 39 40 41 42 42 43 43 43
14 15 17 18 19 20 21 23 24 25 26 27 28 29 30 32 32 33 34 34 34 33 34 34 34 34 34 34 34 34 35 35 35 35 36 38 39 41 41 42 43 44 44
16 17 19 20 21 22 23 25 26 27 27 28 29 30 31 32 33 35 35 35 34 34 35 35 35 35 35 34 34 33 34 34 35 34 35 37 38 40 41 42 43 45 45
18 19 20 21 23 24 25 26 27 28 29 30 31 32 33 34 35 36 36 36 35 36 36 36 36 35 35 34 33 33 33 33 34 34 34 35 37 39 40 41 42 44 45
20 21 22 24 25 26 27 28 29 30 31 32 33 34 35 36 36 37 37 37 37 37 36 37 37 36 35 34 34 33 33 33 34 34 34 35 36 38 39 40 41 43 44
22 24 25 26 27 28 29 30 31 32 33 34 35 35 36 37 37 38 38 37 37 37 37 37 37 36 35 35 34 33 33 33 33 33 32 33 34 36 38 39 40 41 43
25 26 27 28 29 30 31 32 33 34 34 35 36 36 37 38 39 39 39 39 39 39 38 37 36 35 35 35 34 34 33 33 33 32 32 32 33 34 36 38 39 39 40
27 28 29 30 31 32 33 34 34 35 36 37 37 38 38 39 40 40 40 40 40 39 38 37 36 35 36 35 34 33 33 33 33 33 32 32 33 34 35 36 38 39 39
29 30 31 32 33 34 35 35 36 37 38 38 39 40 40 40 41 41 41 40 40 39 39 38 37 36 36 35 34 33 32 32 32 32 32 32 32 33 34 36 37 39 39
32 33 33 34 35 37 37 37 38 39 40 41 41 41 42 42 42 42 42 41 40 40 38 37 36 36 35 35 34 33 32 31 31 31 31 32 32 33 34 35 37 38 39
34 35 36 36 37 38 39 40 40 41 41 42 42 42 43 43 43 43 43 42 40 39 38 37 36 35 35 35 33 32 31 30 30 30 30 31 32 33 34 35 36 38 39
35 36 38 38 39 40 41 42 42 43 44 44 44 44 44 44 45 45 43 42 40 39 38 36 35 35 35 34 32 31 30 29 29 29 29 30 31 32 33 33 35 36 38
37 38 40 41 42 43 44 44 45 45 45 45 46 46 46 45 45 45 43 42 40 39 37 36 35 35 34 33 31 30 29 28 28 28 28 29 29 30 30 31 32 34 36
40 41 42 43 44 45 46 46 46 46 47 47 47 47 47 46 45 45 43 41 40 39 37 36 35 35 34 32 30 29 29 28 28 27 27 27 28 28 29 30 31 33 34
42 43 44 45 46 47 47 47 47 48 48 48 48 48 48 47 46 45 43 42 40 38 38 37 35 34 32 31 30 29 28 27 27 27 26 26 26 26 27 29 30 32 33
45 46 46 47 48 48 49 49 49 49 50 50 50 49 48 48 47 45 43 41 40 38 38 36 35 33 32 31 30 29 28 27 26 26 25 25 25 25 25 27 28 30 32
47 48 48 49 50 49 50 51 51 51 51 51 50 50 49 48 46 45 43 41 39 38 36 34 33 33 32 30 30 29 28 27 26 26 25 24 24 24 24 25 27 28 30
49 49 50 50 51 52 53 53 54 54 53 52 51 50 49 47 45 43 41 39 37 36 35 33 32 32 30 29 29 28 27 26 26 26 25 24 24 23 23 24 25 27 28
51 51 52 53 54 54 54 54 54 54 53 52 50 49 47 45 43 41 38 36 34 34 33 32 31 30 29 28 28 27 27 26 26 25 25 24 24 23 22 23 23 24 26
52 53 53 54 55 55 55 55 54 54 52 51 49 47 45 43 40 37 35 34 32 32 31 31 31 29 27 27 27 26 26 26 25 24 23 23 23 22 22 22 22 23 24
54 55 55 55 55 56 55 55 55 53 51 49 46 44 41 38 36 34 32 31 30 30 29 29 27 27 27 27 26 25 25 25 24 23 23 22 21 21 20 20 21 21 22
55 55 55 56 56 56 55 54 53 50 47 45 42 40 38 35 33 32 30 29 28 28 27 26 26 26 25 25 24 24 23 22 22 21 21 20 20 19 19 19 19 19 20
55 55 54 54 53 52 50 49 47 45 42 39 37 35 34 32 30 29 28 28 27 26 25 24 24 24 23 23 23 22 22 21 21 20 19 19 18 18 18 18 18 18 19
52 51 51 50 48 47 45 43 42 39 37 35 33 32 30 28 27 26 25 24 23 23 23 22 22 22 22 21 21 21 20 20 20 19 18 17 17 17 17 17 18 18 19
48 48 46 45 43 42 41 39 36 33 31 30 29 27 26 25 23 22 21 20 20 20 20 20 21 20 20 20 20 19 19 18 18 18 17 17 16 16 16 17 17 18 19

GEFSGL_500_meanwind_084.txt.gz
Wind_Speed
11 11 11 11 11 11 12 12 13 14 16 17 18 20 21 22 22 23 23 24 25 25 26 27 27 27 27 27 27 27 28 28 29 31 32 33 34 35 36 37 39 40 42
13 13 13 13 13 14 14 15 16 17 18 20 21 22 23 24 24 25 26 26 27 27 28 28 28 28 29 29 29 29 30 30 29 30 33 34 35 35 36 38 39 41 43
15 15 16 16 16 16 17 18 19 19 20 22 23 24 25 26 27 27 28 28 29 29 30 30 30 30 30 31 31 31 31 31 31 31 32 34 35 37 37 38 39 41 43
17 17 18 19 19 19 20 21 22 22 23 24 26 26 27 28 29 30 30 30 31 31 31 31 31 32 32 33 33 33 33 33 33 32 32 33 35 36 37 38 38 40 41
19 19 20 20 20 21 22 23 24 25 26 27 28 28 29 30 31 32 32 32 33 33 33 33 34 34 34 34 34 34 34 34 34 33 33 33 34 36 37 37 38 39 40
20 21 21 22 22 23 24 25 27 28 29 29 30 31 32 32 33 33 33 34 34 34 34 35 35 36 36 35 35 35 35 35 35 35 34 34 34 36 36 37 37 38 39
21 22 23 24 24 25 26 28 29 30 31 32 33 33 34 34 34 34 34 35 35 36 36 36 37 37 37 37 37 37 36 36 35 35 34 34 35 35 36 36 37 37 38
23 24 25 26 27 28 29 30 31 33 33 34 35 36 36 36 36 36 37 37 37 38 38 38 38 39 39 39 38 37 37 37 37 36 35 34 35 35 35 36 36 36 37
25 26 27 28 29 30 31 33 34 35 36 36 37 38 38 38 39 39 39 39 39 40 40 40 40 40 40 40 39 38 38 38 37 36 35 35 35 35 35 35 35 36 36
27 28 29 30 31 32 34 35 37 38 38 39 39 40 40 40 41 41 41 41 41 41 42 42 42 41 41 41 40 39 38 38 37 37 36 35 35 35 36 36 36 36 35
29 30 31 32 34 35 37 38 39 40 41 41 41 42 42 42 42 43 43 43 44 43 43 44 44 43 42 42 41 40 39 38 38 37 36 36 36 36 35 35 35 35 35
31 32 34 35 37 38 39 41 42 42 43 43 44 44 44 45 45 45 45 45 45 46 45 45 45 45 44 43 42 41 40 39 38 37 37 36 36 35 35 34 34 35 35
34 34 36 38 39 40 41 43 44 45 45 46 46 47 47 47 47 47 47 48 48 48 47 47 47 46 45 44 43 42 41 40 39 38 37 37 36 35 35 35 35 34 34
36 37 39 40 41 43 44 45 46 47 48 49 49 50 50 49 49 49 50 50 50 50 49 49 48 47 46 45 43 42 42 40 39 38 37 36 36 35 35 34 34 34 33
39 40 41 43 44 45 47 48 49 50 51 52 52 53 51 50 50 51 52 52 53 52 51 50 50 48 47 45 44 43 42 41 40 39 37 36 35 35 35 34 33 33 33
41 42 44 45 46 48 49 50 51 52 53 54 54 54 54 54 53 54 54 54 54 53 52 51 50 48 47 45 44 43 42 41 40 38 37 36 35 35 34 33 32 32 32
43 45 46 48 49 50 51 52 53 54 55 55 56 57 57 57 57 56 56 55 54 53 52 51 49 47 45 44 43 43 41 40 39 38 36 35 35 34 33 33 33 32 32
46 47 48 50 51 52 53 54 55 56 56 56 57 58 59 59 59 58 57 56 55 54 52 50 48 46 45 44 43 41 40 38 37 36 36 35 34 33 33 33 33 32 32
47 49 50 51 52 53 54 55 57 58 59 59 59 60 60 60 60 59 58 56 54 53 51 48 46 45 43 42 41 39 38 37 36 35 35 34 34 33 32 32 31 32 32
49 50 51 52 53 55 56 58 59 60 61 61 61 61 61 60 59 57 56 54 52 50 48 47 44 43 41 40 38 37 36 35 35 34 34 33 33 32 31 31 31 31 31
51 52 53 55 56 57 59 59 60 61 61 61 61 60 60 58 56 54 52 50 48 46 44 42 40 39 38 36 35 34 33 33 33 32 32 31 31 30 30 31 31 31 30
53 54 55 56 57 58 59 59 59 59 59 58 57 56 55 53 51 49 47 44 42 40 39 37 36 35 34 32 31 31 31 31 31 31 30 30 29 29 30 30 29 29 28
55 55 56 56 57 57 56 56 55 54 54 53 51 49 47 46 44 42 39 37 36 35 35 33 32 31 30 29 28 28 28 29 29 29 28 28 28 28 28 28 28 27 27
54 54 54 54 54 53 53 52 51 51 50 49 47 44 42 41 38 36 34 33 33 32 31 30 28 27 27 26 26 26 26 26 27 27 27 27 27 27 27 26 26 26 26
52 52 51 51 50 50 49 49 48 46 45 43 41 39 37 35 33 31 30 28 27 26 26 25 25 24 22 22 22 23 23 24 24 25 25 25 25 25 25 25 25 25 24
49 49 49 48 47 46 45 44 42 41 39 37 34 32 30 29 27 25 23 22 22 22 21 22 22 21 20 19 20 21 22 23 23 23 23 23 23 23 23 23 23 23 23

GEFSGL_500_meanwind_090.txt.gz
Wind_Speed
14 14 14 15 15 15 15 16 16 16 16 16 17 17 17 17 18 18 19 19 20 20 21 21 21 22 22 22 23 22 23 23 24 25 26 25 26 26 27 28 30 31 33
16 16 16 17 18 18 19 19 19 19 20 20 20 20 20 20 20 21 21 21 22 22 23 23 23 23 24 24 24 24 24 25 25 26 27 27 27 28 28 29 30 31 33
18 18 19 20 21 21 22 22 22 23 22 22 22 22 23 23 23 23 23 23 24 24 25 25 25 26 26 26 26 26 26 26 27 27 28 29 30 30 30 30 30 31 33
19 20 21 22 23 24 24 25 25 25 24 24 24 25 25 25 25 26 26 26 26 26 27 27 27 27 27 28 28 28 28 29 28 29 29 30 31 31 31 31 31 32 32
21 22 23 24 25 25 26 26 27 26 26 26 26 27 27 27 27 27 27 27 28 28 29 29 29 29 29 29 29 30 30 30 30 31 31 31 32 32 32 32 33 33 33
23 24 25 25 26 27 27 28 28 28 28 28 28 28 29 29 29 29 29 30 30 30 30 31 31 31 30 31 31 32 32 32 33 33 33 33 33 33 34 34 34 34 34
25 26 26 27 27 28 28 29 29 29 29 29 30 30 30 30 31 31 31 32 32 32 32 33 33 33 33 33 33 34 34 35 35 35 34 35 35 35 36 35 35 35 35
26 27 28 28 28 29 29 30 30 31 31 31 32 32 32 32 33 33 34 34 34 34 34 35 35 35 36 36 36 37 37 37 37 37 37 36 37 37 37 37 37 37 36
28 29 28 29 29 30 31 31 32 32 33 33 33 33 34 34 35 36 36 37 37 37 37 38 38 38 39 40 40 39 39 39 39 39 39 39 38 39 39 39 38 38 37
31 31 31 31 31 32 33 34 34 34 34 35 36 36 37 37 38 39 40 40 40 40 41 41 41 41 42 43 43 42 42 41 42 42 41 41 41 41 40 40 40 39 39
34 34 34 35 35 35 35 35 36 36 36 37 38 39 40 40 41 42 42 43 43 44 44 44 44 44 44 45 46 46 45 45 44 44 43 43 43 42 42 41 41 41 40
36 36 37 37 37 37 37 37 38 38 39 39 41 42 42 43 44 44 45 46 47 48 47 47 48 48 47 48 48 48 48 48 47 46 46 45 45 44 43 43 42 42 41
36 37 38 38 39 38 39 39 40 40 41 42 43 43 45 46 47 47 48 49 51 51 51 51 51 51 50 50 50 50 50 50 49 48 47 47 46 45 45 44 43 43 42
36 37 38 38 39 39 40 41 43 44 44 45 46 47 48 49 50 51 52 53 53 54 55 55 54 54 54 54 53 52 52 51 51 50 49 48 47 46 45 45 44 44 42
38 38 38 39 39 41 42 43 44 45 46 47 48 49 51 52 53 54 55 56 57 57 58 58 57 57 57 56 56 55 53 52 51 50 49 48 47 46 45 45 44 43 43
37 37 38 39 40 42 43 44 45 47 48 50 51 53 54 56 57 58 58 59 60 61 61 60 60 59 58 57 56 55 54 52 50 49 48 46 46 45 45 44 44 43 42
38 39 40 41 43 44 46 47 49 50 51 52 54 55 57 58 60 61 61 62 62 63 63 62 61 60 58 58 56 55 53 52 50 49 48 47 45 45 44 43 43 43 42
39 40 42 43 45 47 48 49 51 52 53 55 56 58 59 60 61 62 63 63 63 63 62 61 60 59 57 56 54 53 52 51 49 47 46 45 44 44 43 42 42 41 40
41 42 43 45 47 49 50 52 53 55 56 58 59 60 62 63 63 64 63 63 62 61 60 59 57 55 54 52 51 50 49 48 46 45 43 43 42 42 41 40 39 39 39
43 44 46 48 49 51 53 54 56 58 59 60 61 62 62 62 62 61 60 59 58 57 55 54 52 50 49 48 47 45 45 44 43 42 41 40 40 39 38 38 37 37 36
46 48 49 51 52 54 55 57 58 59 60 60 60 60 60 59 58 56 55 54 52 51 49 48 46 45 43 42 41 40 39 38 38 37 36 36 36 35 35 35 35 34 34
49 51 52 54 55 56 56 57 58 58 58 58 58 57 56 54 53 51 49 48 46 45 43 42 40 38 37 36 35 35 34 33 32 32 32 31 32 32 31 32 32 32 32
51 53 54 55 55 56 56 56 56 55 55 54 53 52 50 49 47 45 44 43 41 39 38 37 36 34 33 31 31 31 30 29 28 28 28 28 28 29 30 30 30 30 30
52 53 53 54 53 53 53 52 52 51 50 48 47 46 44 42 41 40 38 36 35 34 32 32 30 29 28 27 26 26 25 25 25 25 25 25 25 26 27 28 27 27 27
51 51 51 51 50 49 48 48 47 45 44 43 42 41 39 37 36 35 33 32 30 29 28 27 25 24 23 23 23 23 22 22 22 23 23 23 23 24 25 25 25 26 26
47 47 46 46 45 44 44 42 41 40 39 38 37 35 34 32 31 30 29 27 25 24 24 23 22 20 19 19 19 20 19 19 19 20 20 21 21 22 23 23 23 24 24

GEFSGL_500_meanwind_096.txt.gz
Wind_Speed
12 13 13 14 15 15 15 15 15 15 15 15 15 15 16 17 18 19 20 20 21 21 21 21 21 21 21 21 22 22 22 22 22 22 22 21 21 22 22 22 22 23 24
13 14 14 15 16 16 17 17 17 17 18 18 18 18 19 20 21 21 22 22 23 23 23 23 23 23 23 23 23 23 24 24 24 24 24 24 24 24 24 24 24 24 24
14 15 16 17 18 18 18 19 19 20 20 20 20 21 21 22 23 23 24 24 25 25 25 25 25 25 25 25 25 25 25 25 26 26 26 26 26 26 26 26 26 26 26
15 16 18 19 19 20 21 21 22 22 22 23 23 23 24 24 25 25 25 26 26 27 27 27 28 27 27 27 27 28 28 27 27 27 28 28 28 28 28 28 28 28 28
16 18 19 20 21 22 23 24 24 24 24 24 25 25 25 26 26 27 27 28 28 28 29 29 29 29 29 29 29 29 29 29 30 30 30 30 31 30 30 30 29 30 29
18 19 20 21 22 23 24 24 25 26 26 26 27 27 27 27 28 28 29 28 29 30 30 31 31 31 31 31 31 32 32 32 32 32 32 33 33 33 33 33 32 31 31
19 20 21 21 22 24 24 25 26 26 27 27 28 28 28 28 29 30 31 31 31 32 32 33 33 33 33 33 33 33 34 35 35 35 35 35 35 35 35 35 35 34 34
22 22 23 23 23 24 24 24 26 27 28 29 30 30 30 31 32 33 33 33 33 34 34 35 35 35 35 36 36 36 36 37 37 38 38 37 38 38 38 38 37 37 36
26 25 26 27 28 28 28 27 28 29 29 30 31 31 32 33 34 35 35 36 36 36 36 37 37 38 38 39 39 39 39 40 40 41 40 40 39 40 40 40 40 39 38
29 29 30 31 31 31 31 31 31 32 31 32 33 33 34 35 35 36 38 39 39 39 39 39 40 41 41 42 43 43 42 43 44 44 44 43 42 42 43 43 43 43 42
33 33 33 33 34 33 32 33 34 35 35 35 36 36 36 37 37 38 39 40 41 41 42 42 42 43 44 45 46 46 46 47 47 47 46 46 46 46 46 46 46 46 46
35 35 35 34 34 35 36 37 38 38 39 39 38 38 40 40 41 40 41 42 43 44 44 45 46 47 48 48 49 50 50 50 50 50 50 49 50 49 49 49 48 48 47
35 37 37 36 35 35 36 37 38 39 39 39 40 40 41 42 42 42 42 43 45 46 47 48 49 49 50 51 52 53 53 54 54 54 53 53 53 52 52 51 50 49 48
36 35 35 36 36 37 38 38 39 39 39 39 40 41 41 42 43 44 44 45 47 48 49 50 52 52 54 55 55 56 56 56 57 57 56 55 54 53 52 51 50 50 49
33 33 34 35 35 35 36 38 38 38 39 40 42 42 42 44 45 46 47 48 50 51 53 55 56 56 57 57 58 58 58 58 58 57 56 55 54 53 52 51 50 50 49
33 33 34 34 35 35 35 36 37 37 39 41 42 44 45 46 47 48 50 52 53 55 57 57 58 59 59 59 59 59 58 58 57 56 56 55 54 53 52 51 50 49 48
33 34 34 35 35 36 37 38 39 40 41 42 44 45 47 48 49 51 52 54 56 57 59 59 60 60 60 60 59 58 58 57 56 55 55 54 53 52 51 50 50 49 48
34 35 36 37 38 39 40 41 42 43 43 45 46 48 50 51 52 54 55 56 57 58 59 59 59 59 58 58 57 56 56 55 54 53 52 51 50 49 48 47 46 46 46
35 36 37 37 38 40 41 42 44 45 47 48 49 51 53 54 55 56 57 57 58 57 57 57 56 56 55 54 53 52 52 50 49 48 47 45 44 44 44 44 43 43 44
37 38 39 40 41 42 43 45 46 47 48 50 51 53 54 55 56 57 57 57 56 55 54 53 52 50 49 48 47 46 45 44 43 42 41 40 40 41 41 41 40 40 40
39 40 41 42 43 44 45 47 48 49 51 52 53 54 55 55 55 54 54 53 52 50 49 48 46 45 44 44 42 41 41 39 38 38 37 36 36 36 36 36 37 37 37
40 41 43 44 46 47 48 49 49 50 51 52 52 52 52 52 51 50 48 47 46 45 44 43 42 41 41 39 38 37 36 36 35 34 33 32 32 32 31 31 31 32 33
43 44 46 47 47 47 48 48 49 49 49 49 49 49 48 47 46 45 44 43 42 41 40 39 38 37 36 35 35 34 32 31 30 30 30 30 29 28 29 29 30 29 29
46 46 46 46 47 46 46 46 46 46 46 46 45 44 43 42 41 40 39 38 37 36 35 35 34 34 33 32 31 29 28 28 28 28 27 27 27 27 26 26 26 26 26
45 45 45 44 44 44 43 43 42 42 42 42 40 39 38 37 36 34 33 33 32 31 31 31 31 30 29 27 26 26 26 25 25 25 24 24 24 24 23 23 23 24 24
44 43 42 42 41 40 39 39 39 39 38 37 35 34 32 32 31 30 29 29 28 27 27 27 27 26 25 24 23 23 22 22 22 21 21 20 20 20 21 21 21 22 22